Torna al catalogo

ATLAS 5 CENTAUR DEB

AttivoHEO
NORAD 46638·DEBRIS·🇺🇸 United States

Lanciato Sep 17, 2014 da Cape Canaveral Space Force Station

Loading…

Prossimi Passaggi (prossime 24 ore)

TLE

AggiornatoSource: Space-Track

Epoca: Sep 13, 2026, 12:06 UTC

1 46638U 14055CN  26256.50430256 -.00000108  00000-0  00000+0 0  9997
2 46638  21.1887  85.2163 5180017 275.5947  30.0512  1.92352095 41712

Traccia ATLAS 5 CENTAUR DEB in tempo reale con AllMySat

Download on the App Store